Weather Roundup
Issued by NWS Chicago, IL

Home | Current Version | Previous Version | Text Only | Print | Product List | Glossary On
Versions: 1 2 3 4 5 6 7 8 9 10 11 12 13 14 15 16 17 18 19 20 21 22 23 24 25 26 27 28 29 30 31 32 33 34 35 36 37 38 39 40 41 42 43 44 45 46 47 48 49 50
000
NZUS59 KLOT 011410
HRRLOT

CHICAGO AREA WEATHER ROUNDUP
NATIONAL WEATHER SERVICE CHICAGO/ROMEOVILLE IL
900 AM CDT FRI AUG 01 2014

NOTE: "FAIR" INDICATES FEW OR NO CLOUDS BELOW 12,000 FEET WITH NO
SIGNIFICANT WEATHER AND/OR OBSTRUCTIONS TO VISIBILITY.

* THESE STATIONS ARE NOT UNDER NWS QUALITY CONTROL. THEY ALSO MAY NOT
  REPORT WEATHER SUCH AS PRECIPITATION OR FOG.

ILZ005-006-012>014-019>023-011500-
NORTHEAST ILLINOIS

CITY           SKY/WX    TMP DP  RH WIND       PRES   REMARKS
OHARE          MOSUNNY   74  56  53 W7        30.08F
MIDWAY         PTSUNNY   73  60  63 W5        30.08F
AURORA         PTSUNNY   71  60  68 SE5       30.09S
LANSING*       PTSUNNY   70  62  76 CALM      30.10F
JOLIET*        PTSUNNY   67  63  87 CALM      30.11S
WAUKEGAN       SUNNY     73  61  65 VRB6      30.08R
DUPAGE AIRPORT MOSUNNY   73  60  63 CALM      30.09F
WHEELING       SUNNY     75  60  59 SW7       30.10S
KANKAKEE*      PTSUNNY   70  63  79 CALM      30.12S
MORRIS*        PTSUNNY   69  66  88 E5        30.09F
LEWIS AIRPORT* LGT RAIN  65  62  90 SW7       30.09F
NORTHERLY IS     N/A     74  58  57 W7          N/A
$$

WIZ051-052-058>065-066-070>072-011500-
SOUTHEAST WISCONSIN

CITY           SKY/WX    TMP DP  RH WIND       PRES   REMARKS
MILWAUKEE      MOSUNNY   74  58  57 VRB3      30.07S
KENOSHA*       SUNNY     72  62  71 W7        30.09R
RACINE*        SUNNY     72  60  66 W6        30.09S
BURLINGTON     SUNNY     69  62  77 SW5       30.09R
WAUKESHA       SUNNY     70  61  73 CALM      30.09S
WEST BEND      SUNNY     72  55  56 W5        30.07S
$$

INZ001>003-010>013-019-020-011500-
NORTHWEST INDIANA

CITY           SKY/WX    TMP DP  RH WIND       PRES   REMARKS
GARY*          PTSUNNY   72  63  73 W7        30.10S
MICHIGAN CITY* NOT AVBL
RENSSELAER*    NOT AVBL
VALPARAISO     MOSUNNY   70  62  76 SW5       30.11S
$$

LMZ740>746-011500-
SOUTHERN LAKE MICHIGAN

STATION/POSITION TIME  SKY/WX   TEMP WIND        PRES    VSBY
                                AIR  DIR/SP/G
                 (UTC)          (F)  (DEG/KT/KT) (MB)    (MI)
HARRISON CRIB    1400            72  260/ 10/ 12   N/A
BURNHAM HARBOR   1400            74  280/  5/ 11   N/A
CALUMET HARBOR   1400            71  220/  4/  7 1017.8F
BURNS HARBOR     NOT AVBL
MICHIGAN CITY    1400            71  180/  5/  6   N/A
$$

ABBREVIATIONS USED IN REMARKS
   TC - TEMPERATURE IN CELSIUS
  WCI - WIND CHILL INDEX
   HX - HEAT INDEX
  VSB - VISIBILITY
$$


USA.gov is the U.S. government's official web portal to all federal, state and local government web resources and services.